TimeEST,TemperatureF,Dew PointF,Humidity,Sea Level PressureIn,VisibilityMPH,Wind Direction,Wind SpeedMPH,Gust SpeedMPH,PrecipitationIn,Events,Conditions,WindDirDegrees,DateUTC
12:15 AM,35.6,35.6,100,29.60,3.0,WNW,9.2,-,0.03,,Overcast,290,2012-12-27 05:15:00
12:35 AM,33.8,33.8,100,29.61,7.0,West,13.8,19.6,0.03,Rain,Light Rain,270,2012-12-27 05:35:00
12:55 AM,33.8,33.8,100,29.62,3.0,West,11.5,19.6,0.09,Snow,Light Snow,260,2012-12-27 05:55:00
1:15 AM,32.0,32.0,100,29.64,1.5,West,21.9,26.5,0.11,,Overcast,270,2012-12-27 06:15:00
1:35 AM,32.0,32.0,100,29.66,3.0,West,18.4,25.3,0.11,Snow,Light Snow,270,2012-12-27 06:35:00
1:55 AM,32.0,32.0,100,29.67,2.5,West,13.8,-,0.12,Snow,Light Snow,260,2012-12-27 06:55:00
2:15 AM,32.0,32.0,100,29.69,2.0,West,16.1,25.3,N/A,,Overcast,260,2012-12-27 07:15:00
2:35 AM,32.0,32.0,100,29.71,3.0,Calm,Calm,-,0.01,,Overcast,0,2012-12-27 07:35:00
2:55 AM,32.0,32.0,100,29.72,3.0,Calm,Calm,-,0.02,,Overcast,0,2012-12-27 07:55:00
3:15 AM,32.0,30.2,93,29.73,4.0,Calm,Calm,-,N/A,,Overcast,0,2012-12-27 08:15:00
3:35 AM,30.2,30.2,100,29.74,2.5,Calm,Calm,-,0.01,,Overcast,0,2012-12-27 08:35:00
4:15 AM,30.2,30.2,100,29.76,4.0,Calm,Calm,-,N/A,Rain,Freezing Rain,0,2012-12-27 09:15:00
4:35 AM,30.2,30.2,100,29.77,5.0,Calm,Calm,-,N/A,Rain,Freezing Rain,0,2012-12-27 09:35:00
4:55 AM,30.2,30.2,100,29.78,5.0,Calm,Calm,-,N/A,,Overcast,0,2012-12-27 09:55:00
5:15 AM,30.2,30.2,100,29.79,6.0,Calm,Calm,-,N/A,Rain,Freezing Rain,0,2012-12-27 10:15:00
5:35 AM,30.2,30.2,100,29.81,3.0,Calm,Calm,-,N/A,,Overcast,0,2012-12-27 10:35:00
5:55 AM,30.2,30.2,100,29.83,3.0,Calm,Calm,-,0.01,Rain,Freezing Rain,0,2012-12-27 10:55:00
6:15 AM,30.2,30.2,100,29.84,3.0,Calm,Calm,-,N/A,,Overcast,0,2012-12-27 11:15:00
6:35 AM,30.2,28.4,93,29.85,2.5,Calm,Calm,-,0.01,Rain,Freezing Rain,0,2012-12-27 11:35:00
6:55 AM,28.4,28.4,100,29.87,3.0,Calm,Calm,-,0.01,,Overcast,0,2012-12-27 11:55:00
7:35 AM,28.4,28.4,100,29.90,2.5,Calm,Calm,-,N/A,,Freezing Rain,0,2012-12-27 12:35:00
7:55 AM,28.4,28.4,100,29.91,1.8,Calm,Calm,-,N/A,Rain,Freezing Rain,0,2012-12-27 12:55:00
8:15 AM,28.4,28.4,100,29.92,2.0,Calm,Calm,-,N/A,Rain,Freezing Rain,0,2012-12-27 13:15:00
8:35 AM,28.4,26.6,93,29.93,2.5,Calm,Calm,-,N/A,Rain,Freezing Rain,0,2012-12-27 13:35:00
8:55 AM,28.4,26.6,93,29.94,1.8,Calm,Calm,-,N/A,Rain,Freezing Rain,0,2012-12-27 13:55:00
9:15 AM,28.4,26.6,93,29.96,2.0,Calm,Calm,-,N/A,,Freezing Rain,0,2012-12-27 14:15:00
9:35 AM,28.4,28.4,100,29.97,3.0,Calm,Calm,-,N/A,Rain,Freezing Rain,0,2012-12-27 14:35:00
9:55 AM,28.4,26.6,93,29.98,7.0,Calm,Calm,-,N/A,,Overcast,0,2012-12-27 14:55:00
10:15 AM,28.4,28.4,100,29.99,5.0,Calm,Calm,-,N/A,Rain,Freezing Rain,0,2012-12-27 15:15:00
10:35 AM,28.4,26.6,93,30.00,4.0,Calm,Calm,-,N/A,Rain,Freezing Rain,0,2012-12-27 15:35:00
10:55 AM,28.4,26.6,93,30.00,2.5,Calm,Calm,-,N/A,Rain,Freezing Rain,0,2012-12-27 15:55:00
11:15 AM,28.4,26.6,93,30.00,2.5,Calm,Calm,-,N/A,Rain,Freezing Rain,0,2012-12-27 16:15:00
11:35 AM,28.4,26.6,93,30.00,5.0,Calm,Calm,-,N/A,,Overcast,0,2012-12-27 16:35:00
11:55 AM,28.4,26.6,93,29.99,5.0,Calm,Calm,-,N/A,,Overcast,0,2012-12-27 16:55:00
12:15 PM,28.4,26.6,93,29.99,9.0,Calm,Calm,-,N/A,,Mostly Cloudy,0,2012-12-27 17:15:00
12:35 PM,28.4,26.6,93,29.98,8.0,Calm,Calm,-,N/A,,Overcast,0,2012-12-27 17:35:00
12:55 PM,28.4,26.6,93,29.98,6.0,Calm,Calm,-,N/A,Rain,Freezing Rain,0,2012-12-27 17:55:00
1:15 PM,28.4,26.6,93,29.98,10.0,Calm,Calm,-,N/A,,Overcast,0,2012-12-27 18:15:00
1:35 PM,28.4,26.6,93,29.99,10.0,Calm,Calm,-,N/A,,Overcast,0,2012-12-27 18:35:00
1:55 PM,28.4,26.6,93,29.99,10.0,Calm,Calm,-,N/A,,Overcast,0,2012-12-27 18:55:00
2:15 PM,28.4,26.6,93,29.99,10.0,Calm,Calm,-,N/A,,Overcast,0,2012-12-27 19:15:00
2:35 PM,28.4,26.6,93,30.00,7.0,Calm,Calm,-,N/A,,Overcast,0,2012-12-27 19:35:00
3:15 PM,28.4,26.6,93,30.01,10.0,West,5.8,-,N/A,,Overcast,260,2012-12-27 20:15:00
3:35 PM,28.4,28.4,100,30.01,10.0,Calm,Calm,-,N/A,,Overcast,0,2012-12-27 20:35:00
3:55 PM,28.4,28.4,100,30.02,7.0,Calm,Calm,-,N/A,,Overcast,0,2012-12-27 20:55:00
4:15 PM,28.4,28.4,100,30.03,6.0,Calm,Calm,-,N/A,,Overcast,0,2012-12-27 21:15:00
4:35 PM,28.4,28.4,100,30.04,5.0,WSW,6.9,-,N/A,,Overcast,240,2012-12-27 21:35:00
4:55 PM,28.4,28.4,100,30.05,4.0,WSW,4.6,-,N/A,,Overcast,240,2012-12-27 21:55:00
5:15 PM,28.4,28.4,100,30.05,5.0,Calm,Calm,-,N/A,,Overcast,0,2012-12-27 22:15:00
5:35 PM,28.4,28.4,100,30.06,5.0,Calm,Calm,-,N/A,,Overcast,0,2012-12-27 22:35:00
5:55 PM,28.4,28.4,100,30.06,7.0,Calm,Calm,-,N/A,,Overcast,0,2012-12-27 22:55:00
6:15 PM,28.4,28.4,100,30.07,9.0,Calm,Calm,-,N/A,,Overcast,0,2012-12-27 23:15:00
6:35 PM,28.4,28.4,100,30.08,8.0,Calm,Calm,-,N/A,,Overcast,0,2012-12-27 23:35:00
6:55 PM,28.4,28.4,100,30.08,8.0,Calm,Calm,-,N/A,,Overcast,0,2012-12-27 23:55:00
7:35 PM,28.4,28.4,100,30.10,8.0,Calm,Calm,-,N/A,,Overcast,0,2012-12-28 00:35:00
7:55 PM,28.4,28.4,100,30.10,10.0,Calm,Calm,-,N/A,,Overcast,0,2012-12-28 00:55:00
8:55 PM,28.4,28.4,100,30.10,8.0,West,3.5,-,N/A,,Overcast,260,2012-12-28 01:55:00
9:15 PM,28.4,28.4,100,30.10,9.0,West,3.5,-,N/A,,Overcast,270,2012-12-28 02:15:00
9:35 PM,28.4,28.4,100,30.10,9.0,Calm,Calm,-,N/A,,Overcast,0,2012-12-28 02:35:00
9:55 PM,28.4,28.4,100,30.10,10.0,Calm,Calm,-,N/A,,Overcast,0,2012-12-28 02:55:00
10:15 PM,28.4,28.4,100,30.10,10.0,Calm,Calm,-,N/A,,Overcast,0,2012-12-28 03:15:00
10:35 PM,28.4,28.4,100,30.10,10.0,Calm,Calm,-,N/A,,Overcast,0,2012-12-28 03:35:00
10:55 PM,28.4,28.4,100,30.10,10.0,Calm,Calm,-,N/A,,Overcast,0,2012-12-28 03:55:00
11:15 PM,28.4,28.4,100,30.10,10.0,Calm,Calm,-,N/A,,Overcast,0,2012-12-28 04:15:00
11:35 PM,28.4,28.4,100,30.11,10.0,Calm,Calm,-,N/A,,Overcast,0,2012-12-28 04:35:00
11:55 PM,28.4,28.4,100,30.11,10.0,Calm,Calm,-,N/A,,Overcast,0,2012-12-28 04:55:00